When you browse on this site, cookies collect data to enhance your experience and personalize the content and advertising you see.
Visit our Privacy Policy to learn more. By continuing to use the site, you agree to this use of cookies and data.
  • In Hungary
  • List of Countries
  • For 7 days
  • Water Temperature
  • Weather Map
  • News
  • Weather Widgets
  • user-avatar
    Login

    Hourly Weather Shepino

    Today, 21 October, Monday

    Time Temperature Precipitation Wind Pressure Humidity
    00:00 +11°C° 0 mm 3 mps 752 mmHg 88%
    01:00 +11°C° 0 mm 3 mps 752 mmHg 88%
    02:00 +10°C° 0 mm 3 mps 752 mmHg 90%
    03:00 +10°C° 0 mm 3 mps 752 mmHg 90%
    04:00 +10°C° 0 mm 3 mps 752 mmHg 89%
    05:00 +10°C° 0 mm 3 mps 752 mmHg 89%
    06:00 +10°C° 0 mm 4 mps 752 mmHg 85%
    07:00 +11°C° 0 mm 4 mps 752 mmHg 82%
    08:00 +11°C° 0 mm 4 mps 752 mmHg 77%
    09:00 +12°C° 0 mm 5 mps 752 mmHg 73%
    10:00 +14°C° 0 mm 5 mps 752 mmHg 69%
    11:00 +15°C° 0 mm 5 mps 752 mmHg 65%
    12:00 +15°C° 0 mm 5 mps 752 mmHg 65%
    13:00 +15°C° 0 mm 5 mps 752 mmHg 65%
    14:00 +16°C° 0 mm 5 mps 751 mmHg 64%
    15:00 +15°C° 0 mm 5 mps 751 mmHg 68%
    16:00 +14°C° 0 mm 4 mps 751 mmHg 72%
    17:00 +13°C° 0 mm 4 mps 751 mmHg 75%
    18:00 +13°C° 0 mm 4 mps 751 mmHg 78%
    19:00 +12°C° 0 mm 3 mps 751 mmHg 81%
    20:00 +12°C° 0 mm 3 mps 751 mmHg 83%
    21:00 +11°C° 0 mm 3 mps 751 mmHg 85%
    22:00 +11°C° 0 mm 3 mps 751 mmHg 87%
    23:00 +12°C° 0 mm 2 mps 751 mmHg 89%

    Tomorrow, 22 October, Tuesday

    Time Temperature Precipitation Wind Pressure Humidity
    00:00 +12°C° 0 mm 2 mps 751 mmHg 90%
    01:00 +12°C° 0 mm 2 mps 751 mmHg 91%
    02:00 +10°C° 0 mm 2 mps 751 mmHg 92%
    03:00 +10°C° 0 mm 2 mps 752 mmHg 93%
    04:00 +11°C° 0 mm 1 mps 752 mmHg 94%
    05:00 +11°C° 0 mm 1 mps 752 mmHg 95%
    06:00 +12°C° 0 mm 1 mps 752 mmHg 94%
    07:00 +12°C° 0 mm 1 mps 752 mmHg 93%
    08:00 +12°C° 0 mm 1 mps 752 mmHg 92%
    09:00 +13°C° 0 mm 1 mps 753 mmHg 88%
    10:00 +14°C° 0 mm 1 mps 753 mmHg 84%
    11:00 +15°C° 0 mm 1 mps 753 mmHg 80%
    12:00 +16°C° 0 mm 1 mps 753 mmHg 79%
    13:00 +15°C° 0 mm 0 mps 753 mmHg 77%
    14:00 +15°C° 0 mm 0 mps 753 mmHg 76%
    15:00 +15°C° 0 mm 1 mps 753 mmHg 80%
    16:00 +15°C° 0 mm 1 mps 752 mmHg 84%
    17:00 +14°C° 0 mm 1 mps 752 mmHg 88%
    18:00 +13°C° 0 mm 1 mps 752 mmHg 89%
    19:00 +13°C° 0 mm 1 mps 752 mmHg 91%
    20:00 +13°C° 0 mm 1 mps 752 mmHg 92%
    21:00 +13°C° 0 mm 2 mps 752 mmHg 92%
    22:00 +13°C° 0 mm 2 mps 752 mmHg 92%
    23:00 +12°C° 0 mm 3 mps 752 mmHg 92%

    Day after tomorrow, 23 October, Wednesday

    Time Temperature Precipitation Wind Pressure Humidity
    00:00 +12°C° 0 mm 3 mps 752 mmHg 92%
    01:00 +12°C° 0 mm 3 mps 752 mmHg 92%
    02:00 +11°C° 0 mm 3 mps 752 mmHg 92%
    03:00 +11°C° 0 mm 3 mps 751 mmHg 93%
    04:00 +11°C° 0 mm 3 mps 751 mmHg 93%
    05:00 +10°C° 0 mm 3 mps 751 mmHg 94%
    06:00 +11°C° 0 mm 3 mps 751 mmHg 92%
    07:00 +11°C° 0 mm 3 mps 751 mmHg 90%
    08:00 +12°C° 0 mm 3 mps 751 mmHg 89%
    09:00 +13°C° 0 mm 3 mps 751 mmHg 84%
    10:00 +14°C° 0 mm 3 mps 750 mmHg 79%
    11:00 +17°C° 0 mm 4 mps 750 mmHg 75%
    12:00 +17°C° 0 mm 4 mps 750 mmHg 73%
    13:00 +18°C° 0 mm 4 mps 750 mmHg 71%
    14:00 +18°C° 0 mm 4 mps 750 mmHg 69%
    15:00 +17°C° 0 mm 4 mps 749 mmHg 75%
    16:00 +16°C° 0 mm 3 mps 749 mmHg 80%
    17:00 +14°C° 0 mm 3 mps 749 mmHg 86%
    18:00 +13°C° 0 mm 3 mps 749 mmHg 87%
    19:00 +14°C° 0 mm 2 mps 749 mmHg 89%
    20:00 +14°C° 0 mm 2 mps 749 mmHg 91%
    21:00 +13°C° 0 mm 2 mps 749 mmHg 91%
    22:00 +13°C° 0 mm 1 mps 749 mmHg 92%
    23:00 +13°C° 0 mm 1 mps 749 mmHg 93%

    24 October, Thursday

    Time Temperature Precipitation Wind Pressure Humidity
    00:00 +13°C° 0 mm 1 mps 749 mmHg 93%
    01:00 +13°C° 0 mm 1 mps 749 mmHg 93%
    02:00 +13°C° 0 mm 1 mps 749 mmHg 94%
    03:00 +12°C° 0 mm 1 mps 749 mmHg 94%
    04:00 +12°C° 0 mm 1 mps 749 mmHg 95%
    05:00 +12°C° 0 mm 1 mps 749 mmHg 96%
    06:00 +12°C° 0 mm 1 mps 749 mmHg 95%
    07:00 +12°C° 0 mm 2 mps 750 mmHg 95%
    08:00 +12°C° 0 mm 2 mps 750 mmHg 94%
    09:00 +13°C° 0 mm 2 mps 750 mmHg 90%
    10:00 +14°C° 0 mm 2 mps 750 mmHg 85%
    11:00 +14°C° 0 mm 3 mps 750 mmHg 81%
    12:00 +14°C° 0 mm 3 mps 750 mmHg 79%
    13:00 +14°C° 0 mm 3 mps 751 mmHg 77%
    14:00 +15°C° 0 mm 2 mps 751 mmHg 75%
    15:00 +14°C° 0 mm 2 mps 751 mmHg 77%
    16:00 +14°C° 0 mm 2 mps 751 mmHg 78%
    17:00 +13°C° 0 mm 2 mps 751 mmHg 80%
    18:00 +13°C° 0 mm 2 mps 751 mmHg 79%
    19:00 +13°C° 0 mm 2 mps 752 mmHg 78%
    20:00 +12°C° 0 mm 2 mps 752 mmHg 77%
    21:00 +12°C° 0 mm 2 mps 752 mmHg 78%
    22:00 +10°C° 0 mm 2 mps 752 mmHg 79%
    23:00 +11°C° 0 mm 1 mps 752 mmHg 80%

    25 October, Friday

    Time Temperature Precipitation Wind Pressure Humidity
    00:00 +10°C° 0 mm 1 mps 752 mmHg 82%
    01:00 +10°C° 0 mm 1 mps 752 mmHg 83%
    02:00 +9°C° 0 mm 1 mps 753 mmHg 84%
    03:00 +9°C° 0 mm 1 mps 753 mmHg 85%
    04:00 +9°C° 0 mm 1 mps 753 mmHg 86%
    05:00 +8°C° 0 mm 1 mps 753 mmHg 86%
    06:00 +9°C° 0 mm 1 mps 753 mmHg 85%
    07:00 +9°C° 0 mm 1 mps 753 mmHg 83%
    08:00 +10°C° 0 mm 1 mps 753 mmHg 81%
    09:00 +11°C° 0 mm 1 mps 753 mmHg 76%
    10:00 +12°C° 0 mm 1 mps 753 mmHg 72%
    11:00 +13°C° 0 mm 1 mps 754 mmHg 67%
    12:00 +14°C° 0 mm 1 mps 753 mmHg 65%
    13:00 +14°C° 0 mm 1 mps 753 mmHg 64%
    14:00 +15°C° 0 mm 1 mps 753 mmHg 62%
    15:00 +13°C° 0 mm 1 mps 753 mmHg 67%
    16:00 +12°C° 0 mm 2 mps 753 mmHg 72%
    17:00 +10°C° 0 mm 2 mps 752 mmHg 77%
    18:00 +10°C° 0 mm 2 mps 752 mmHg 79%
    19:00 +9°C° 0 mm 2 mps 752 mmHg 81%
    20:00 +9°C° 0 mm 2 mps 753 mmHg 83%
    21:00 +9°C° 0 mm 2 mps 752 mmHg 84%
    22:00 +8°C° 0 mm 3 mps 752 mmHg 85%
    23:00 +8°C° 0 mm 3 mps 752 mmHg 86%

    26 October, Saturday

    Time Temperature Precipitation Wind Pressure Humidity
    00:00 +8°C° 0 mm 3 mps 752 mmHg 87%
    01:00 +8°C° 0 mm 3 mps 752 mmHg 87%
    02:00 +8°C° 0 mm 3 mps 752 mmHg 88%
    03:00 +8°C° 0 mm 3 mps 752 mmHg 90%
    04:00 +7°C° 0 mm 3 mps 751 mmHg 91%
    05:00 +7°C° 0 mm 3 mps 751 mmHg 92%
    06:00 +7°C° 0 mm 4 mps 751 mmHg 90%
    07:00 +7°C° 0 mm 4 mps 751 mmHg 88%
    08:00 +8°C° 0 mm 4 mps 751 mmHg 86%
    09:00 +10°C° 0 mm 4 mps 751 mmHg 82%
    10:00 +12°C° 0 mm 4 mps 751 mmHg 79%
    11:00 +13°C° 0 mm 5 mps 751 mmHg 75%
    12:00 +13°C° 0 mm 5 mps 751 mmHg 75%
    13:00 +14°C° 0 mm 4 mps 751 mmHg 75%
    14:00 +14°C° 0 mm 4 mps 751 mmHg 75%
    15:00 +13°C° 0 mm 4 mps 751 mmHg 80%
    16:00 +12°C° 0 mm 3 mps 751 mmHg 85%
    17:00 +11°C° 0 mm 3 mps 751 mmHg 89%
    18:00 +11°C° 0 mm 3 mps 751 mmHg 88%
    19:00 +11°C° 0 mm 3 mps 751 mmHg 87%
    20:00 +10°C° 0 mm 3 mps 751 mmHg 85%
    21:00 +10°C° 0 mm 2 mps 751 mmHg 87%
    22:00 +9°C° 0 mm 2 mps 751 mmHg 88%
    23:00 +9°C° 0 mm 1 mps 751 mmHg 90%

    27 October, Sunday

    Time Temperature Precipitation Wind Pressure Humidity
    00:00 +9°C° 0 mm 1 mps 751 mmHg 91%
    01:00 +7°C° 0 mm 2 mps 751 mmHg 92%
    02:00 +7°C° 0 mm 2 mps 751 mmHg 93%
    03:00 +7°C° 0 mm 2 mps 751 mmHg 94%
    04:00 +6°C° 0 mm 2 mps 750 mmHg 95%
    05:00 +6°C° 0 mm 2 mps 750 mmHg 96%
    06:00 +5°C° 0 mm 3 mps 750 mmHg 94%
    07:00 +7°C° 0 mm 3 mps 750 mmHg 92%
    08:00 +7°C° 0 mm 3 mps 750 mmHg 90%
    09:00 +8°C° 0 mm 4 mps 750 mmHg 84%
    10:00 +11°C° 0 mm 4 mps 749 mmHg 77%
    11:00 +12°C° 0 mm 4 mps 749 mmHg 71%
    12:00 +13°C° 0 mm 5 mps 748 mmHg 69%
    13:00 +14°C° 0 mm 5 mps 748 mmHg 67%
    14:00 +15°C° 0 mm 5 mps 747 mmHg 65%
    15:00 +14°C° 0 mm 5 mps 746 mmHg 71%
    16:00 +13°C° 0 mm 5 mps 746 mmHg 77%
    17:00 +12°C° 0 mm 5 mps 746 mmHg 83%
    18:00 +12°C° 0 mm 5 mps 745 mmHg 84%
    19:00 +12°C° 0 mm 5 mps 745 mmHg 85%
    20:00 +10°C° 0 mm 5 mps 745 mmHg 86%
    21:00 +10°C° 0 mm 5 mps 745 mmHg 88%
    22:00 +10°C° 0 mm 5 mps 744 mmHg 89%
    23:00 +9°C° 0 mm 5 mps 744 mmHg 91%
    Show more